Orbital Elements at Epoch 2459200.5 (2020-Dec-17.0) TDB
Reference: JPL 18 (heliocentric ecliptic J2000)
Element | Value | Uncertainty (1-sigma) | Units |
e | .1287466717812151 | 5.2096e-08 | |
a | 2.660737452516892 | 1.9905e-08 | au |
q | 2.318176361021713 | 1.4751e-07 | au |
i | 12.35186369736224 | 6.3579e-06 | deg |
node | 22.80393978557881 | 1.9981e-05 | deg |
peri | 109.7932809188633 | 3.7425e-05 | deg |
M | 55.87229478857045 | 2.638e-05 | deg |
tp | 2458954.465806270582 (2020-Apr-14.96580627) | 0.0001169 | TDB |
period | 1585.263502738917 4.34 | 1.7789e-05 4.87e-08 | d yr |
n | .2270915840666331 | 2.5484e-09 | deg/d |
Q | 3.003298544012071 | 2.2468e-08 | au |
|
| | Orbit Determination Parameters
Additional Information
|